Погода в Ташле

Россия / Оренбургская область     51°46′05″N   52°44′34″E
темп.,
°C
ветер,
м/с
пор.,
м/с
влажн.,
%
обл.,
%
осадки,
мм/ч
давл.,
гПа
погр.,
м
25 июля, вс
вс2523:00+22с484172 0.0 1010271
02:00+18с3356100 0.0 101142
05:00+18ссз345813 0.0 101283
08:00+20с575813 0.0 1014394
11:00+24с55402 0.0 10151424
14:00+26ссз55290 0.0 10162442
17:00+27ссз652647 0.0 10162918
20:00+24ссз66294 0.0 10181351
26 июля, пн
пн2623:00+17ссз48400 0.0 1020146
02:00+14ссв410430 0.0 1021178
05:00+13с47430 0.0 102299
08:00+17с58370 0.0 1022327
11:00+22с67290 0.0 10221792
14:00+25с66245 0.0 10212480
17:00+26ссз66225 0.0 10202953
20:00+24ссз572558 0.0 10201103
27 июля, вт
вт2723:00+18ссз483848 0.0 1021153
02:00+15ссз45485 0.0 102172
05:00+14с33475 0.0 102137
08:00+18с23405 0.0 1021181
11:00+24ссз34295 0.0 10192371
14:00+27сз452436 0.0 10183040
17:00+27ссз762413 0.0 10162968
20:00+24зсз353344 0.0 1016703
28 июля, ср
ср2823:00+19сз334720 0.0 101626
02:00+18сз34515 0.0 101547
05:00+16ссз49670 0.0 1015175
08:00+18с59620 0.0 1016401
11:00+23с57360 0.0 10161910
14:00+27ссз56265 0.0 10152676
17:00+28ссз67225 0.0 10142860
20:00+25ссз57220 0.0 10141071
29 июля, чт
чт2923:00+19с33345 0.0 101537
02:00+17св11420 0.0 101511
05:00+15ю11475 0.0 101511
08:00+20ююз1136100 0.0 1015124
11:00+27юз442584 0.0 10141232
14:00+30зюз4525100 0.0 10133076
17:00+31юз4623100 0.0 10113008
20:00+23с101151100 0.0 1011531